This is the latest recevied weather packets stored in our database for station/object PA3BWK. If no packets are shown the sender has not sent any weather packets the latest 10 day(s).
| Time | Temp. | Humidity | Pressure | Rain* | Wind** | Luminosity | Snow |
|---|---|---|---|---|---|---|---|
| 1778252522 | 17.22° C | 52% | 1018.5 hPa | 0 mm | - | 218 W/m² | - |
| 1778252463 | 16.67° C | 53% | 1018.5 hPa | 0 mm | - | 220 W/m² | - |
| 1778252401 | 16.67° C | 53% | 1018.5 hPa | 0 mm | - | 222 W/m² | - |
| 1778252341 | 16.67° C | 52% | 1018.4 hPa | 0 mm | - | 223 W/m² | - |
| 1778252283 | 16.67° C | 51% | 1018.4 hPa | 0 mm | - | 222 W/m² | - |
| 1778252222 | 16.67° C | 53% | 1018.5 hPa | 0 mm | - | 220 W/m² | - |
| 1778252161 | 17.22° C | 55% | 1018.5 hPa | 0 mm | - | 218 W/m² | - |
| 1778252101 | 17.22° C | 55% | 1018.5 hPa | 0 mm | - | 218 W/m² | - |
| 1778252043 | 17.22° C | 54% | 1018.5 hPa | 0 mm | - | 220 W/m² | - |
| 1778252015 | 16.67° C | 55% | 1018.5 hPa | 0 mm | - | 227 W/m² | - |
| 1778251921 | 16.67° C | 55% | 1018.5 hPa | 0 mm | - | 234 W/m² | - |
| 1778251861 | 16.67° C | 57% | 1018.5 hPa | 0 mm | - | 239 W/m² | - |
| 1778251834 | 16.67° C | 54% | 1018.5 hPa | 0 mm | - | 246 W/m² | - |
| 1778251741 | 16.67° C | 53% | 1018.4 hPa | 0 mm | - | 253 W/m² | - |
| 1778251713 | 16.67° C | 53% | 1018.5 hPa | 0 mm | - | 262 W/m² | - |
| 1778251653 | 16.67° C | 52% | 1018.5 hPa | 0 mm | - | 269 W/m² | - |
| 1778251594 | 16.67° C | 56% | 1018.4 hPa | 0 mm | - | 287 W/m² | - |
| 1778251532 | 16.67° C | 54% | 1018.4 hPa | 0 mm | - | 274 W/m² | - |
| 1778251442 | 16.67° C | 53% | 1018.4 hPa | 0 mm | - | 287 W/m² | - |
| 1778251382 | 16.67° C | 54% | 1018.5 hPa | 0 mm | - | 369 W/m² | - |
| 1778251321 | 16.67° C | 56% | 1018.5 hPa | 0 mm | - | 269 W/m² | - |
| 1778251261 | 16.67° C | 57% | 1018.5 hPa | 0 mm | - | 229 W/m² | - |
| 1778251202 | 16.67° C | 55% | 1018.5 hPa | 0 mm | - | 223 W/m² | - |
| 1778251141 | 16.67° C | 55% | 1018.4 hPa | 0 mm | - | 218 W/m² | - |
| 1778251084 | 16.67° C | 55% | 1018.5 hPa | 0 mm | - | 213 W/m² | - |
* Rain latest hour (hover to see other rain measurements)
** Current wind speed in m/s (hover to see current wind gust speed)